OCN134 HKMO-HTZA

Flight info

Callsign OCN134
Flight time 0h 29m
Altitude 16000
Route IMSIS2A UVUKO DCT OKPOL DCT IMTOM DCT IMVIV
Aircraft A332/H-SDE2E3FGHIJ3J4J5LM1OP2RWXYZ/LB1D1

Departure

Time 2026-05-08 08:33
Airport Moi International Airport (HKMO)

Arrival

Time 2026-05-08 09:03
Airport Abeid Amani Karume International Airport (HTZA)
Time Latitude Longitude Altitude Speed Heading
2026-05-08 08:04 -4.03206 39.60202 217 ft 0 kts 119°
2026-05-08 08:22 -4.03204 39.60197 235 ft 2 kts 118°
2026-05-08 08:22 -4.03195 39.60180 223 ft 3 kts 112°
2026-05-08 08:22 -4.03188 39.60161 211 ft 3 kts 103°
2026-05-08 08:23 -4.03185 39.60141 210 ft 3 kts 88°
2026-05-08 08:23 -4.03188 39.60123 218 ft 3 kts 55°
2026-05-08 08:23 -4.03195 39.60114 219 ft 1 kts 29°
2026-05-08 08:23 -4.03196 39.60114 219 ft 5 kts 29°
2026-05-08 08:27 -4.03194 39.60115 218 ft 1 kts 29°
2026-05-08 08:27 -4.03182 39.60122 217 ft 3 kts 29°
2026-05-08 08:27 -4.03157 39.60136 213 ft 5 kts 29°
2026-05-08 08:27 -4.03120 39.60154 216 ft 6 kts 17°
2026-05-08 08:28 -4.03079 39.60141 216 ft 7 kts 326°
2026-05-08 08:28 -4.03048 39.60102 217 ft 8 kts 300°
2026-05-08 08:28 -4.03018 39.60049 220 ft 9 kts 299°
2026-05-08 08:28 -4.02983 39.59986 214 ft 11 kts 299°
2026-05-08 08:29 -4.02927 39.59948 217 ft 10 kts
2026-05-08 08:29 -4.02864 39.59977 220 ft 11 kts 29°
2026-05-08 08:29 -4.02794 39.60016 217 ft 12 kts 29°
2026-05-08 08:29 -4.02714 39.60061 213 ft 14 kts 29°
2026-05-08 08:30 -4.02624 39.60112 218 ft 16 kts 29°
2026-05-08 08:30 -4.02525 39.60168 216 ft 17 kts 29°
2026-05-08 08:30 -4.02300 39.60295 214 ft 20 kts 30°
2026-05-08 08:31 -4.02175 39.60366 219 ft 21 kts 30°
2026-05-08 08:31 -4.02042 39.60441 219 ft 22 kts 27°
2026-05-08 08:31 -4.01901 39.60515 216 ft 23 kts 28°
2026-05-08 08:31 -4.01756 39.60596 215 ft 25 kts 29°
2026-05-08 08:32 -4.01604 39.60682 220 ft 25 kts 29°
2026-05-08 08:32 -4.01439 39.60736 216 ft 26 kts 352°
2026-05-08 08:32 -4.01357 39.60624 213 ft 21 kts 232°
2026-05-08 08:32 -4.01474 39.60551 219 ft 26 kts 207°
2026-05-08 08:33 -4.01787 39.60379 216 ft 82 kts 209°
2026-05-08 08:33 -4.02457 39.60004 220 ft 136 kts 209°
2026-05-08 08:33 -4.03381 39.59493 525 ft 156 kts 206°
2026-05-08 08:33 -4.04333 39.58971 1169 ft 157 kts 207°
2026-05-08 08:34 -4.05266 39.58453 2003 ft 149 kts 207°
2026-05-08 08:34 -4.06197 39.57929 2441 ft 164 kts 206°
2026-05-08 08:34 -4.07282 39.57323 2618 ft 195 kts 207°
2026-05-08 08:34 -4.08572 39.56602 2804 ft 228 kts 207°
2026-05-08 08:35 -4.10024 39.55789 3238 ft 250 kts 207°
2026-05-08 08:35 -4.11561 39.54926 4020 ft 254 kts 207°
2026-05-08 08:35 -4.13112 39.54055 4950 ft 258 kts 207°
2026-05-08 08:35 -4.14698 39.53166 5837 ft 264 kts 207°
2026-05-08 08:36 -4.16310 39.52262 6728 ft 267 kts 207°
2026-05-08 08:36 -4.17942 39.51348 7609 ft 271 kts 207°
2026-05-08 08:36 -4.19594 39.50422 8507 ft 273 kts 208°
2026-05-08 08:36 -4.21260 39.49489 9484 ft 275 kts 207°
2026-05-08 08:37 -4.22954 39.48542 10297 ft 286 kts 208°
2026-05-08 08:37 -4.24833 39.47695 10704 ft 309 kts 195°
2026-05-08 08:37 -4.27024 39.47452 11162 ft 324 kts 179°
2026-05-08 08:37 -4.29289 39.47558 11916 ft 328 kts 176°
2026-05-08 08:38 -4.31587 39.47713 12655 ft 333 kts 176°
2026-05-08 08:38 -4.33915 39.47871 13424 ft 338 kts 176°
2026-05-08 08:38 -4.36280 39.48024 14070 ft 344 kts 176°
2026-05-08 08:38 -4.38683 39.48175 14704 ft 349 kts 176°
2026-05-08 08:39 -4.41122 39.48326 15301 ft 354 kts 176°
2026-05-08 08:39 -4.43598 39.48477 15770 ft 357 kts 176°
2026-05-08 08:39 -4.46069 39.48627 15958 ft 352 kts 176°
2026-05-08 08:39 -4.48451 39.48771 15989 ft 335 kts 176°
2026-05-08 08:40 -4.50745 39.48910 15987 ft 328 kts 176°
2026-05-08 08:40 -4.53023 39.49048 15984 ft 328 kts 176°
2026-05-08 08:40 -4.55305 39.49186 15983 ft 330 kts 176°
2026-05-08 08:40 -4.57597 39.49325 15982 ft 330 kts 176°
2026-05-08 08:41 -4.59887 39.49464 15981 ft 329 kts 176°
2026-05-08 08:41 -4.62174 39.49602 15982 ft 329 kts 176°
2026-05-08 08:41 -4.64458 39.49740 15982 ft 328 kts 176°
2026-05-08 08:41 -4.66738 39.49878 15983 ft 329 kts 176°
2026-05-08 08:42 -4.69023 39.50005 15982 ft 329 kts 178°
2026-05-08 08:42 -4.71309 39.49851 15988 ft 331 kts 187°
2026-05-08 08:42 -4.73576 39.49440 15988 ft 331 kts 191°
2026-05-08 08:42 -4.75817 39.48896 15987 ft 331 kts 193°
2026-05-08 08:43 -4.78039 39.48299 15986 ft 331 kts 194°
2026-05-08 08:43 -4.80259 39.47691 15985 ft 331 kts 194°
2026-05-08 08:43 -4.82483 39.47091 15985 ft 331 kts 193°
2026-05-08 08:43 -4.84714 39.46506 15985 ft 331 kts 193°
2026-05-08 08:44 -4.86946 39.45934 15985 ft 331 kts 193°
2026-05-08 08:44 -4.89175 39.45374 15985 ft 330 kts 193°
2026-05-08 08:44 -4.91406 39.44818 15985 ft 331 kts 193°
2026-05-08 08:44 -4.93639 39.44265 15985 ft 331 kts 192°
2026-05-08 08:45 -4.95876 39.43710 15988 ft 331 kts 192°
2026-05-08 08:45 -4.98111 39.43156 15988 ft 330 kts 192°
2026-05-08 08:45 -5.00342 39.42602 15989 ft 330 kts 193°
2026-05-08 08:45 -5.02575 39.42047 15988 ft 331 kts 193°
2026-05-08 08:46 -5.04816 39.41489 15988 ft 332 kts 192°
2026-05-08 08:46 -5.07057 39.40932 15991 ft 332 kts 192°
2026-05-08 08:46 -5.09293 39.40375 15990 ft 331 kts 192°
2026-05-08 08:46 -5.11529 39.39818 15990 ft 331 kts 192°
2026-05-08 08:47 -5.13767 39.39262 15980 ft 334 kts 193°
2026-05-08 08:47 -5.16095 39.38684 15754 ft 350 kts 192°
2026-05-08 08:47 -5.18448 39.38099 15512 ft 345 kts 192°
2026-05-08 08:47 -5.20756 39.37523 15277 ft 340 kts 193°
2026-05-08 08:48 -5.23049 39.36951 14936 ft 339 kts 193°
2026-05-08 08:48 -5.25313 39.36386 14416 ft 340 kts 193°
2026-05-08 08:48 -5.27616 39.35813 13869 ft 341 kts 193°
2026-05-08 08:48 -5.29924 39.35238 13274 ft 342 kts 193°
2026-05-08 08:49 -5.32222 39.34666 12779 ft 339 kts 193°
2026-05-08 08:49 -5.34496 39.34099 12296 ft 335 kts 193°
2026-05-08 08:49 -5.36742 39.33539 11886 ft 330 kts 193°
2026-05-08 08:49 -5.38954 39.32988 11485 ft 325 kts 193°
2026-05-08 08:50 -5.41136 39.32444 11083 ft 321 kts 193°
2026-05-08 08:50 -5.43288 39.31907 10691 ft 317 kts 193°
2026-05-08 08:50 -5.45414 39.31378 10296 ft 313 kts 194°
2026-05-08 08:50 -5.47513 39.30854 9913 ft 309 kts 194°
2026-05-08 08:51 -5.49582 39.30339 9490 ft 303 kts 194°
2026-05-08 08:51 -5.51603 39.29835 9068 ft 297 kts 193°
2026-05-08 08:51 -5.53589 39.29339 8662 ft 292 kts 193°
2026-05-08 08:51 -5.55549 39.28849 8233 ft 288 kts 193°
2026-05-08 08:52 -5.57468 39.28370 7891 ft 281 kts 193°
2026-05-08 08:52 -5.59346 39.27902 7561 ft 276 kts 193°
2026-05-08 08:52 -5.61207 39.27438 7230 ft 275 kts 192°
2026-05-08 08:52 -5.63063 39.26976 6908 ft 274 kts 193°
2026-05-08 08:53 -5.64905 39.26517 6590 ft 272 kts 192°
2026-05-08 08:53 -5.66738 39.26060 6351 ft 271 kts 192°
2026-05-08 08:53 -5.68567 39.25604 6123 ft 270 kts 192°
2026-05-08 08:53 -5.70390 39.25149 5898 ft 270 kts 192°
2026-05-08 08:54 -5.72208 39.24696 5706 ft 269 kts 192°
2026-05-08 08:54 -5.74020 39.24244 5532 ft 268 kts 192°
2026-05-08 08:54 -5.75830 39.23792 5362 ft 268 kts 192°
2026-05-08 08:54 -5.77633 39.23342 5194 ft 267 kts 192°
2026-05-08 08:55 -5.79434 39.22893 5036 ft 266 kts 192°
2026-05-08 08:55 -5.81227 39.22446 4864 ft 265 kts 192°
2026-05-08 08:55 -5.83017 39.21999 4699 ft 265 kts 192°
2026-05-08 08:55 -5.84804 39.21553 4519 ft 265 kts 192°
2026-05-08 08:56 -5.86589 39.21107 4348 ft 264 kts 192°
2026-05-08 08:56 -5.88364 39.20664 4166 ft 260 kts 192°
2026-05-08 08:56 -5.90094 39.20231 3977 ft 253 kts 192°
2026-05-08 08:56 -5.91778 39.19812 3776 ft 246 kts 190°
2026-05-08 08:57 -5.93447 39.19627 3591 ft 238 kts 178°
2026-05-08 08:57 -5.95078 39.19753 3407 ft 232 kts 172°
2026-05-08 08:57 -5.96654 39.19931 3257 ft 223 kts 172°
2026-05-08 08:57 -5.98161 39.20090 3070 ft 214 kts 172°
2026-05-08 08:58 -5.99599 39.20235 2967 ft 200 kts 173°
2026-05-08 08:58 -6.00923 39.20364 2987 ft 182 kts 172°
2026-05-08 08:58 -6.02140 39.20482 2970 ft 172 kts 172°
2026-05-08 08:58 -6.03324 39.20598 2966 ft 171 kts 172°
2026-05-08 08:59 -6.04506 39.20715 2964 ft 171 kts 172°
2026-05-08 08:59 -6.05692 39.20835 2953 ft 171 kts 172°
2026-05-08 08:59 -6.06876 39.20955 2787 ft 171 kts 172°
2026-05-08 08:59 -6.08059 39.21074 2552 ft 171 kts 172°
2026-05-08 09:00 -6.09237 39.21191 2315 ft 170 kts 172°
2026-05-08 09:00 -6.10409 39.21309 2085 ft 168 kts 173°
2026-05-08 09:00 -6.11567 39.21424 1881 ft 167 kts 173°
2026-05-08 09:00 -6.12716 39.21539 1658 ft 163 kts 172°
2026-05-08 09:01 -6.13805 39.21648 1454 ft 150 kts 173°
2026-05-08 09:01 -6.14781 39.21745 1267 ft 136 kts 173°
2026-05-08 09:01 -6.15695 39.21837 1099 ft 129 kts 172°
2026-05-08 09:01 -6.16591 39.21927 941 ft 127 kts 173°
2026-05-08 09:02 -6.17481 39.22016 774 ft 130 kts 173°
2026-05-08 09:02 -6.18380 39.22106 620 ft 133 kts 174°
2026-05-08 09:02 -6.19301 39.22199 408 ft 133 kts 173°
2026-05-08 09:02 -6.20219 39.22293 221 ft 134 kts 174°
2026-05-08 09:03 -6.21139 39.22384 83 ft 131 kts 174°
2026-05-08 09:03 -6.21926 39.22463 62 ft 79 kts 174°
2026-05-08 09:03 -6.22220 39.22492 55 ft 24 kts 174°
2026-05-08 09:03 -6.22299 39.22424 57 ft 15 kts 262°
2026-05-08 09:04 -6.22331 39.22344 54 ft 9 kts 203°
2026-05-08 09:04 -6.22396 39.22340 57 ft 10 kts 177°
2026-05-08 09:04 -6.22426 39.22312 61 ft 6 kts 248°
2026-05-08 09:04 -6.22429 39.22275 57 ft 4 kts 287°
2026-05-08 09:05 -6.22408 39.22259 60 ft 4 kts 343°
2026-05-08 09:05 -6.22374 39.22254 60 ft 6 kts 354°
2026-05-08 09:05 -6.22350 39.22252 59 ft 2 kts 354°
2026-05-08 09:05 -6.22330 39.22250 58 ft 0 kts 355°